Location: Maccacari
(45.1333°N, 11.1333°E)
Time: 07:51:35
(UTC+00:00)

SR - Pass Details

Date: 22 January 2021
Orbit: 573 x 882 km, 66.7° (Epoch: 04 March)

Event Time Altitude Azimuth Distance (km) Brightness Sun altitude
Exits shadow 03:46:37 36° 123° (ESE) 1,085 ? -31.3°
Maximum altitude 03:46:58 37° 112° (ESE) 1,080 ? -31.3°
Drops below altitude 10° 03:51:40 10° 46° (NE) 2,260 ? -30.4°
Sets 03:54:18 0° 39° (NE) 3,243 ? -30.0°
